Wenatchee, WA

6:37 AM PST on November 18, 2017 (GMT -0800)
Pangborn Memorial

Weather History for KEAT - October, 2010

Change the Weather History Date:

Friday, October 8, 2010

  Actual Average Record
Temperature  
Mean Temperature 52 °F 49 °F  
Max Temperature 57 °F 62 °F 79 °F (1965)
Min Temperature 46 °F 36 °F 28 °F (2017)
Degree Days  
Heating Degree Days 13 16  
Month to date heating degree days 78 118  
Since 1 July heating degree days 475 474  
Cooling Degree Days 0 0  
Month to date cooling degree days 0 0  
Year to date cooling degree days 183 249  
Growing Degree Days 8 (Base 50)    
Moisture  
Dew Point 46 °F    
Average Humidity 64    
Maximum Humidity 96    
Minimum Humidity 45    
Precipitation  
Precipitation T in 0.03 in 0.50 in (1997)
Month to date precipitation 0.39 0.21  
Year to date precipitation 12.82 11.26  
Snow  
Snow 0.00 in 0.00 in - ()
Month to date snowfall 0.0 0.0  
Since 1 July snowfall 0.0 0.0  
Since 1 September snowfall 0.0 0.0  
Snow Depth 0.00 in    
Sea Level Pressure  
Sea Level Pressure 30.08 in    
Wind  
Wind Speed 5 mph (SSE)    
Max Wind Speed 10 mph    
Max Gust Speed -    
Visibility 10 miles    
Events      
T = Trace of Precipitation, MM = Missing Value Source: NWS Daily Summary

Daily Weather History Graph

Daily Weather History Graph

Search for Another Location

Airport or City:

Trip Planner

Search our weather history database for the weather conditions in past years. The results will help you decide how hot, cold, wet, or windy it might be!

Date:

Astronomy

Oct. 08, 2010 Rise Set
Actual Time 7:09 AM PDT 6:26 PM PDT
Civil Twilight 6:38 AM PDT 6:56 PM PDT
Nautical Twilight 6:03 AM PDT 7:32 PM PDT
Astronomical Twilight 5:27 AM PDT 8:08 PM PDT
Moon 8:33 AM PDT (10/8) 6:30 PM PDT (10/8)
Length of Visible Light 12h 18m
Length of Day
11h 16m
New Moon, 1% of the Moon is Illuminated
Oct 8
New Moon
Oct 14
First Quarter
Oct 22
Full
Oct 30
Last Quarter
Nov 5
New

Hourly Weather History & Observations

Time (PDT) Temp. Dew Point Humidity Pressure Visibility Wind Dir Wind Speed Gust Speed Precip Events Conditions
12:55 AM 53.1 °F 52.0 °F 96% 30.01 in 7.0 mi East 5.8 mph - N/A   Partly Cloudy
1:55 AM 55.0 °F 50.0 °F 83% 30.01 in 10.0 mi Calm Calm - N/A   Overcast
2:55 AM 55.0 °F 48.0 °F 77% 30.02 in 10.0 mi WSW 4.6 mph - N/A   Scattered Clouds
3:55 AM 53.1 °F 45.0 °F 74% 30.03 in 10.0 mi SW 4.6 mph - N/A   Clear
4:55 AM 51.1 °F 46.9 °F 86% 30.04 in 10.0 mi SW 4.6 mph - N/A   Clear
5:55 AM 52.0 °F 46.0 °F 80% 30.06 in 10.0 mi WSW 3.5 mph - N/A   Clear
6:55 AM 54.0 °F 44.1 °F 69% 30.06 in 10.0 mi NW 5.8 mph - N/A   Clear
7:55 AM 54.0 °F 44.1 °F 69% 30.08 in 10.0 mi WNW 3.5 mph - N/A   Clear
8:55 AM 57.0 °F 45.0 °F 64% 30.10 in 10.0 mi SSW 4.6 mph - N/A   Clear
9:55 AM 57.9 °F 43.0 °F 58% 30.10 in 10.0 mi West 3.5 mph - N/A   Partly Cloudy
10:55 AM 59.0 °F 45.0 °F 60% 30.11 in 10.0 mi SW 3.5 mph - N/A   Clear
11:55 AM 62.1 °F 43.0 °F 50% 30.11 in 10.0 mi West 3.5 mph - N/A   Clear
12:55 PM 63.0 °F 43.0 °F 48% 30.11 in 10.0 mi Variable 3.5 mph - N/A   Clear
1:55 PM 64.0 °F 43.0 °F 46% 30.10 in 10.0 mi ESE 8.1 mph - N/A   Clear
2:55 PM 66.0 °F 44.1 °F 45% 30.09 in 10.0 mi SE 9.2 mph - N/A   Clear
3:55 PM 66.0 °F 45.0 °F 47% 30.08 in 10.0 mi ESE 8.1 mph - N/A   Clear
4:55 PM 66.0 °F 45.0 °F 47% 30.07 in 10.0 mi ESE 5.8 mph - N/A   Clear
5:55 PM 64.0 °F 44.1 °F 48% 30.09 in 10.0 mi ESE 10.4 mph - N/A   Clear
6:55 PM 61.0 °F 45.0 °F 56% 30.10 in 10.0 mi ESE 8.1 mph - N/A   Clear
7:55 PM 57.9 °F 45.0 °F 62% 30.12 in 10.0 mi East 5.8 mph - N/A   Clear
8:55 PM 57.9 °F 46.0 °F 65% 30.12 in 10.0 mi East 8.1 mph - N/A   Scattered Clouds
9:55 PM 57.0 °F 46.0 °F 67% 30.12 in 10.0 mi East 8.1 mph - N/A   Clear
10:55 PM 57.0 °F 46.9 °F 69% 30.12 in 10.0 mi East 8.1 mph - N/A   Clear
11:55 PM 55.9 °F 46.9 °F 72% 30.12 in 10.0 mi ESE 4.6 mph - N/A   Overcast